www.pogodaiklimat.ru

Погода и климат >> Архив погоды >> Норвегия >> Стокмаркнес аэропорт


ПОГОДА в Стокмаркнес аэропорту

  • Прогноз погоды в Стокмаркнес аэропорту
  • Монитор погоды в Стокмаркнес аэропорту

АРХИВ ПОГОДЫ в Стокмаркнес аэропорту

Время (UTC), дата Ветер
(напр.,м/с)
 
Видим.   Явления Облачность Т
(С)
Тd
(С)
f
(%)
Тe
(С)
Тes
(С)
Комфортность P
(гПа)
Po
(гПа)
Тmin
(С)
Tmax
(С)
R
(мм)
R24
(мм)
S
(см)
04 15.08 З 4
{5}
н/о н/о +12.2 +11.5 95 +10 +10 1004.7 1004.2
05 15.08 З 5
{7}
н/о н/о +11.9 +11.2 95 +9 +9 1004.8 1004.3
06 15.08 З 4
{8}
н/о н/о +11.9 +11.3 96 +10 +10 1005.1 1004.6 +11.7 +13.1
07 15.08 З 5
{7}
н/о н/о +12.3 +11.5 95 +10 +10 1005.2 1004.7
08 15.08 З 5
{7}
н/о н/о +12.0 +11.1 94 +9 +9 1005.4 1004.9
09 15.08 З 4
{7}
н/о н/о +12.8 +11.6 92 +11 +11 1005.6 1005.1
10 15.08 З 5
{7}
н/о н/о +12.7 +11.3 91 +10 +10 1005.8 1005.4
11 15.08 З 5
{7}
н/о н/о +13.3 +11.9 91 +11 +11 1006.0 1005.5
12 15.08 З 6
{7}
н/о н/о +13.4 +11.3 87 +11 +11 1006.3 1005.8
13 15.08 З 5
{7}
н/о н/о +13.3 +10.8 85 +11 +11 1006.6 1006.1
14 15.08 З 6
{7}
н/о н/о +13.0 +10.2 83 +11 +11 1006.8 1006.3
15 15.08 З 5
{8}
н/о н/о +13.1 +10.2 83 +11 +11 1007.0 1006.5
16 15.08 З 5
{7}
н/о н/о +13.2 +10.2 82 +11 +11 1007.3 1006.8
17 15.08 З 4
{7}
н/о н/о +12.9 +10.3 84 +11 +11 1007.4 1006.9
18 15.08 СЗ 2
{8}
н/о н/о +12.5 +9.7 83 +12 +12 1007.5 1007.0 +11.9 +13.5
19 15.08 СЗ 2
{3}
н/о н/о +12.2 +9.5 84 +11 +11 1007.6 1007.1
20 15.08 З 1
{3}
н/о н/о +11.9 +9.5 85 +12 +12 1007.6 1007.1
21 15.08 штиль 0
{2}
н/о н/о +11.5 +9.6 88 +11 +11 1007.6 1007.1
22 15.08 С 2
{2}
н/о н/о +11.0 +9.7 92 +10 +10 1007.6 1007.1
23 15.08 С 2
{2}
н/о н/о +10.7 +9.6 93 +9 +9 1007.5 1007.0
00 16.08 С 2
{3}
н/о н/о +10.3 +9.3 94 +9 +9 1007.3 1006.9
01 16.08
{2}
н/о н/о +9.8 +8.7 93 1007.2 1006.7
02 16.08 С 2
{2}
н/о н/о +9.8 +8.8 93 +8 +8 1007.1 1006.6
03 16.08 С 2
{2}
н/о н/о +9.2 +8.3 94 +7 +7 1007.0 1006.5
04 16.08
{3}
н/о н/о +9.9 +9.0 94 1006.7 1006.2
05 16.08 С 1
{2}
н/о н/о +10.5 +9.5 94 +10 +10 1006.7 1006.3
06 16.08 С 1
{3}
н/о н/о +12.2 +10.5 89 +12 +12 1006.3 1005.8 +9.0 +12.6
07 16.08 В 3
{4}
н/о н/о +13.1 +10.4 84 +12 +12 1005.8 1005.4
08 16.08 В 4
{5}
н/о н/о +13.5 +10.0 79 +12 +12 1005.4 1004.9
09 16.08 В 3
{5}
н/о н/о +14.1 +10.3 78 +13 +13 1004.9 1004.5
10 16.08 В 3
{4}
н/о н/о +14.6 +10.1 74 +14 +14 1004.7 1004.2
11 16.08 В 2
{4}
н/о н/о +15.6 +10.3 71 +16 +16 1004.5 1004.0
12 16.08 В 2
{5}
н/о н/о +17.0 +8.7 58 +17 +17 1004.2 1003.8
13 16.08 ЮВ 2
{3}
н/о н/о +16.7 +10.2 65 +17 +17 1004.3 1003.9
14 16.08 ЮВ 2
{3}
н/о н/о +17.6 +8.6 56 +18 +18 1004.4 1003.9
15 16.08 ЮЗ 2
{4}
н/о н/о +16.1 +9.7 66 +16 +16 1004.2 1003.7
16 16.08 Ю 2
{3}
н/о н/о +14.8 +11.5 81 +14 +14 1004.2 1003.7
17 16.08 СВ 1
{4}
н/о н/о +14.5 +11.4 82 +15 +15 1004.6 1004.1
18 16.08 СВ 2
{4}
н/о н/о +13.6 +11.4 87 +13 +13 1004.4 1003.9 +12.2 +18.1
19 16.08 Ю 4
{5}
н/о н/о +13.2 +10.9 86 +11 +11 1004.9 1004.4
20 16.08 ЮВ 2
{5}
н/о н/о +13.2 +10.5 84 +12 +12 1004.9 1004.4
21 16.08 ЮВ 6
{8}
н/о н/о +12.8 +9.6 81 +10 +10 1004.4 1003.9
22 16.08 С 1
{9}
н/о н/о +12.9 +9.5 80 +13 +13 1004.7 1004.2
23 16.08 С 2
{4}
н/о н/о +11.3 +9.6 89 +10 +10 1004.9 1004.4
00 17.08 СВ 2
{9}
н/о н/о +12.0 +10.2 89 +11 +11 1004.8 1004.3
01 17.08 Ю 2
{5}
н/о н/о +12.4 +10.2 86 +11 +11 1004.9 1004.4
02 17.08 С 3
{4}
н/о н/о +10.8 +9.5 92 +9 +9 1004.7 1004.2
03 17.08 ЮВ 5
{7}
н/о н/о +12.8 +9.6 81 +11 +11 1004.2 1003.8
04 17.08 ЮВ 6
{8}
н/о н/о +13.0 +9.5 79 +11 +11 1004.0 1003.6
05 17.08 ЮВ 5
{7}
н/о н/о +13.5 +9.3 76 +12 +12 1004.1 1003.6
06 17.08 ЮВ 4
{8}
н/о н/о +14.5 +9.1 70 +13 +13 1004.0 1003.6 +10.6 +14.8
07 17.08 ЮВ 4
{5}
н/о н/о +15.0 +9.2 68 +14 +14 1003.8 1003.3
08 17.08 ЮВ 2
{5}
н/о н/о +15.7 +9.0 64 +16 +16 1003.8 1003.3
09 17.08 В 2
{4}
н/о н/о +15.2 +7.9 62 +15 +15 1003.4 1003.0
10 17.08 СВ 3
{4}
н/о н/о +16.4 +6.7 53 +16 +16 1003.1 1002.6
11 17.08 В 2
{4}
н/о н/о +16.9 +6.2 49 +17 +17 1002.9 1002.4
12 17.08 В 2
{5}
н/о н/о +17.2 +6.5 49 +18 +18 1002.4 1001.9
13 17.08 СВ 1
{4}
н/о н/о +16.9 +6.6 51 +18 +18 1002.0 1001.6
14 17.08 В 2
{3}
н/о н/о +18.5 +7.3 48 +19 +19 1001.3 1000.9
15 17.08 В 3
{4}
н/о н/о +16.5 +9.4 63 +16 +16 1000.7 1000.2
16 17.08 СВ 3
{5}
н/о н/о +16.2 +10.3 68 +16 +16 1000.1 999.6
17 17.08 В 4
{5}
н/о н/о +15.7 +11.1 74 +15 +15 999.6 999.1
18 17.08 СВ 4
{5}
н/о н/о +16.7 +10.1 65 +16 +16 999.1 998.6 +14.4 +18.9
19 17.08 СВ 3
{5}
н/о н/о +16.9 +10.2 65 +17 +17 998.6 998.1
20 17.08 В 4
{5}
н/о н/о +16.6 +10.8 69 +16 +16 998.4 997.9
21 17.08
{7}
н/о н/о +15.3 +11.8 80 997.8 997.4
22 17.08 С 2
{3}
н/о н/о +14.8 +12.2 84 +14 +14 997.6 997.1
23 17.08 З 3
{5}
н/о н/о +14.4 +12.9 91 +13 +13 997.8 997.3
00 18.08 В 1
{7}
н/о н/о +13.9 +12.5 91 +14 +14 998.0 997.5
01 18.08 В 2
{4}
н/о н/о +14.5 +12.4 87 +14 +14 997.8 997.3
02 18.08 ЮВ 3
{4}
н/о н/о +14.8 +11.9 83 +14 +14 997.7 997.2
03 18.08 В 2
{5}
н/о н/о +14.2 +12.2 88 +14 +14 997.6 997.1
04 18.08 СВ 2
{5}
н/о н/о +14.7 +11.8 83 +14 +14 997.5 997.0
05 18.08 ЮВ 5
{8}
н/о н/о +15.1 +11.8 81 +14 +14 997.7 997.2
06 18.08 ЮВ 3
{8}
н/о н/о +15.0 +12.0 82 +14 +14 997.7 997.2 +13.6 +17.0
07 18.08 В 2
{4}
н/о н/о +15.0 +12.3 84 +15 +15 998.1 997.6
08 18.08 В 4
{6}
н/о н/о +16.6 +10.9 69 +16 +16 998.1 997.6
09 18.08 В 3
{5}
н/о н/о +16.7 +12.6 77 +16 +16 998.2 997.8
10 18.08 В 3
{4}
н/о н/о +17.7 +11.8 68 +18 +18 998.4 997.9
11 18.08 В 2
{4}
н/о н/о +18.6 +11.1 62 +20 +20 998.5 998.1
12 18.08 ЮВ 1
{6}
н/о н/о +19.2 +11.3 60 +21 +21 комфорт 998.6 998.1
13 18.08 В 4
{5}
н/о н/о +18.4 +12.2 67 +19 +19 998.5 998.0
14 18.08 ЮВ 4
{6}
н/о н/о +18.0 +12.3 69 +18 +18 998.7 998.2
15 18.08 ЮЗ 3
{9}
н/о н/о +15.3 +13.5 89 +15 +15 999.3 998.8
16 18.08 СЗ 4
{10}
н/о н/о +14.3 +13.0 92 +13 +13 1000.3 999.8
17 18.08 СЗ 3
{5}
н/о н/о +14.9 +13.1 89 +14 +14 1000.9 1000.4
18 18.08 СЗ 2
{10}
н/о н/о +14.5 +13.0 91 +14 +14 1001.3 1000.8 +14.1 +20.0
19 18.08 С 1
{3}
н/о н/о +14.0 +12.8 92 +14 +14 1001.4 1000.9
20 18.08 ЮЗ 2
{3}
н/о н/о +13.8 +12.9 94 +13 +13 1001.6 1001.1
21 18.08 ЮВ 1
{3}
н/о н/о +13.5 +12.7 95 +14 +14 1002.0 1001.5
22 18.08 С 1
{2}
н/о н/о +12.5 +11.9 96 +12 +12 1002.1 1001.7
23 18.08 С 2
{3}
н/о н/о +10.5 +10.0 97 +9 +9 1001.9 1001.4
00 19.08 С 2
{3}
н/о н/о +9.9 +9.3 96 +8 +8 1001.9 1001.4
01 19.08 СВ 2
{3}
н/о н/о +11.0 +10.6 97 +10 +10 1001.4 1000.9
02 19.08 СЗ 1
{3}
н/о н/о +9.7 +9.4 98 +9 +9 1001.3 1000.8
03 19.08
{2}
н/о н/о +11.1 +10.7 97 1000.9 1000.4
04 19.08 СЗ 2
{2}
н/о н/о +11.9 +11.6 98 +11 +11 1000.5 1000.0
05 19.08 З 1
{3}
н/о н/о +12.3 +11.9 97 +12 +12 999.7 999.2
06 19.08 СЗ 1
{3}
н/о н/о +13.1 +12.3 95 +13 +13 999.3 998.9 +8.8 +14.5
07 19.08 З 1
{3}
н/о н/о +14.1 +12.6 91 +14 +14 998.9 998.4
08 19.08 С 2
{5}
н/о н/о +15.7 +12.6 82 +16 +16 998.3 997.9
09 19.08
{06}
н/о
10 19.08 В 5
{7}
н/о н/о +16.6 +12.9 79 +16 +16 997.2 996.8
11 19.08 В 3
{5}
н/о н/о +16.6 +12.8 78 +16 +16 997.0 996.6
12 19.08 В 4
{7}
н/о н/о +17.0 +13.2 78 +17 +17 996.7 996.2
13 19.08 В 4
{6}
н/о н/о +17.7 +13.2 75 +17 +17 996.6 996.1
14 19.08 В 4
{5}
н/о н/о +16.5 +13.1 80 +16 +16 996.5 996.0
15 19.08 В 2
{6}
н/о н/о +16.9 +13.4 80 +17 +17 996.6 996.1
16 19.08 ЮВ 1
{4}
н/о н/о +15.1 +12.7 86 +16 +16 996.9 996.4
17 19.08 З 4
{5}
н/о н/о +14.7 +12.9 89 +13 +13 997.0 996.5
18 19.08 З 5
{6}
н/о н/о +13.9 +12.6 92 +12 +12 997.4 996.9
19 19.08 З 5
{7}
н/о н/о +13.4 +12.2 92 +11 +11 997.8 997.3
20 19.08 З 4
{6}
н/о н/о +13.0 +12.0 94 +11 +11 998.5 998.0
21 19.08 В 3
{6}
н/о н/о +12.9 +11.7 92 +11 +11 999.1 998.6
22 19.08 З 2
{4}
н/о н/о +13.0 +11.6 91 +12 +12 999.5 999.1
23 19.08 В 2
{4}
н/о н/о +12.6 +11.6 94 +12 +12 1000.1 999.6
00 20.08 З 3
{7}
н/о н/о +12.6 +11.5 93 +11 +11 1000.5 1000.1
01 20.08 З 4
{5}
н/о н/о +12.6 +11.4 92 +11 +11 1001.0 1000.5
02 20.08 З 4
{5}
н/о н/о +12.4 +11.2 92 +10 +10 1001.5 1001.0
03 20.08 З 4
{4}
н/о н/о +12.2 +11.2 94 +10 +10 1001.9 1001.4
04 20.08 З 4
{5}
н/о н/о +11.7 +11.0 95 +9 +9 1002.3 1001.9
05 20.08 З 4
{5}
н/о н/о +11.8 +11.0 95 +10 +10 1002.8 1002.4
06 20.08 З 4
{5}
н/о н/о +11.9 +11.0 94 +10 +10 1003.4 1003.0 +11.6 +13.9
07 20.08 З 3
{4}
н/о н/о +12.0 +10.9 93 +10 +10 1004.1 1003.6
08 20.08 З 3
{4}
н/о н/о +12.5 +11.1 91 +11 +11 1004.6 1004.2
09 20.08 З 4
{5}
н/о н/о +12.6 +11.3 92 +11 +11 1005.1 1004.6
10 20.08 ЮЗ 2
{5}
н/о н/о +13.5 +11.6 88 +13 +13 1005.5 1005.0
11 20.08 Ю 2
{3}
н/о н/о +13.3 +11.1 87 +13 +13 1006.0 1005.5
12 20.08 Ю 2
{5}
н/о н/о +13.6 +10.9 84 +13 +13 1006.4 1006.0
13 20.08 З 2
{3}
н/о н/о +14.1 +11.4 84 +14 +14 1007.0 1006.5
14 20.08 ЮВ 2
{3}
н/о н/о +14.1 +11.6 85 +14 +14 1007.3 1006.8
15 20.08 ЮВ 2
{4}
н/о н/о +14.3 +11.6 84 +14 +14 1007.6 1007.1
16 20.08 ЮВ 2
{3}
н/о н/о +14.7 +11.7 82 +14 +14 1007.8 1007.3
17 20.08 В 1
{2}
н/о н/о +15.0 +11.1 77 +16 +16 1008.1 1007.6
18 20.08 ЮВ 2
{5}
н/о н/о +14.9 +11.6 81 +15 +15 1008.3 1007.8 +11.8 +15.6
19 20.08 Ю 3
{7}
н/о н/о +14.8 +10.9 77 +14 +14 1008.4 1007.9
20 20.08 ЮВ 5
{7}
н/о н/о +14.5 +10.8 78 +13 +13 1008.8 1008.3
21 20.08 Ю 3
{7}
н/о н/о +14.7 +9.8 72 +14 +14 1008.6 1008.2
22 20.08 ЮВ 5
{6}
н/о н/о +14.1 +10.5 79 +12 +12 1008.7 1008.2
23 20.08 ЮВ 4
{7}
н/о н/о +13.8 +11.1 84 +12 +12 1008.6 1008.1
00 21.08 ЮВ 3
{7}
н/о н/о +13.8 +10.9 83 +13 +13 1008.6 1008.2
01 21.08 В 2
{6}
н/о н/о +13.4 +11.3 87 +13 +13 1009.0 1008.5
02 21.08 СВ 1
{3}
н/о н/о +12.2 +11.2 94 +12 +12 1009.6 1009.1
03 21.08 СВ 2
{3}
н/о н/о +12.1 +11.5 96 +11 +11 1009.3 1008.8
04 21.08 В 2
{5}
н/о н/о +12.3 +11.1 92 +11 +11 1009.4 1008.9
05 21.08 ЮВ 4
{6}
н/о н/о +12.8 +10.8 88 +11 +11 1009.4 1009.0
06 21.08 ЮВ 2
{6}
н/о н/о +13.3 +10.8 85 +13 +13 1009.4 1008.9 +11.9 +14.9
07 21.08 ЮВ 4
{6}
н/о н/о +13.5 +11.0 85 +12 +12 1009.5 1009.0
08 21.08 Ю 4
{7}
н/о н/о +13.6 +11.0 84 +12 +12 1009.7 1009.2
09 21.08 Ю 3
{6}
н/о н/о +13.3 +11.2 87 +12 +12 1009.8 1009.4
10 21.08 Ю 4
{8}
н/о н/о +13.5 +11.2 86 +12 +12 1009.9 1009.4
11 21.08 Ю 4
{7}
н/о н/о +13.4 +11.0 85 +12 +12 1010.1 1009.6
12 21.08 Ю 4
{8}
н/о н/о +13.4 +11.6 89 +12 +12 1010.4 1010.0
13 21.08 З 6
{8}
н/о н/о +13.1 +11.8 92 +11 +11 1010.9 1010.5
14 21.08 З 6
{8}
н/о н/о +14.2 +11.3 83 +12 +12 1011.5 1011.0
15 21.08 З 9
{12}
н/о н/о +12.6 +10.9 89 +9 +9 1012.2 1011.8
16 21.08 З 8
{12}
н/о н/о +12.2 +9.7 85 +9 +9 1013.3 1012.9
17 21.08 З 6
{10}
н/о н/о +12.0 +10.3 89 +9 +9 1014.1 1013.6
18 21.08 З 7
{12}
н/о н/о +11.6 +9.8 89 +8 +8 1014.7 1014.3 +11.3 +15.3
19 21.08 З 5
{11}
н/о н/о +11.0 +9.9 93 +8 +8 1015.3 1014.8
20 21.08 З 4
{8}
н/о н/о +11.1 +9.8 92 +9 +9 1015.8 1015.3
21 21.08 З 5
{8}
н/о н/о +10.8 +9.4 91 +8 +8 1016.1 1015.6
22 21.08 З 2
{6}
н/о н/о +10.8 +9.5 92 +9 +9 1016.5 1016.1
23 21.08 З 3
{3}
н/о н/о +11.2 +9.6 90 +9 +9 1016.6 1016.1
00 22.08 З 2
{11}
н/о н/о +11.5 +9.5 88 +10 +10 1017.1 1016.6
01 22.08 Ю 3
{4}
н/о н/о +11.0 +9.9 93 +9 +9 1017.2 1016.7
02 22.08 Ю 4
{5}
н/о н/о +11.2 +9.8 91 +9 +9 1017.1 1016.6

 

Местоположение метеостанции Стокмаркнес аэропорт (Норвегия): широта 68.58 долгота 15.03 высота над уровнем моря 3 м.

В архиве по умолчанию представлена погода в Стокмаркнес аэропорту за последнюю неделю. Архивные данные за месяц целиком и за предыдущие месяцы, начиная с января 2011 года, Вы можете получить, выбрав интересующий диапазон дат из раскрывающегося списка и нажав кнопку "Ввод!".


*Определитесь, кто Вы:
робот инопланетянин человек

Внимание! Время в таблицах - всемирное. Для получения местного времени необходимо прибавить поправку, которая равна 1 ч.

Смотрите также архив погоды в соседних городах и на ближайших метеорологических станциях:

Погода в Сортланне (Норвегия) (21 км)
Погода в Бё (Норвегия) (25 км)
Погода в Сволваер аэропорту (Норвегия) (40 км)
Погода на Маяке Rotvaer (Норвегия) (44 км)
Погода на Маяке Skrova (Норвегия) (50 км)
Погода в Харстаде (Норвегия) (65 км)
Погода в Аэропорту Харстад/Нарвик (Норвегия) (68 км)
Погода в Драге (Норвегия) (73 км)
Погода в Лекнесе (Норвегия) (74 км)
Погода на Аннёйа (Норвегия) (91 км)

Пояснения к столбцам:

Ветер - указаны скорость ветра в м/с - средняя за 10 мин, порывы в срок и между сроками (в фигурных скобках) и направление, откуда дует ветер: С - северный, СВ - северо-восточный, В - восточный, ЮВ - юго-восточный, Ю - южный, ЮЗ - юго-западный, З - западный, СЗ - северо-западный.
Видимость - горизонтальная дальность видимости в метрах или километрах. При видимости от 1 до 10 км при отсутствии осадков обычно наблюдается дымка, при ухудшении видимости до 1 км и менее - туман. В сухую погоду видимость может ухудшаться дымом, пылью или мглою.
Явления - указаны атмосферные явления, наблюдавшиеся в срок или в последний час перед сроком; фигурными скобками обозначены явления, наблюдавшиеся между сроками (за 1-3 часа до срока); квадратными скобками обозначены град или гололедные отложения с указанием их диаметра в мм.
Облачность - указаны через наклонную черту общая и нижняя облачность в баллах и высота нижней границы облаков в метрах; квадратными скобками обозначены формы облаков: Ci - перистые, Cs - перисто-слоистые, Cc - перисто-кучевые, Ac - высококучевые, As - высокослоистые, Sc - слоисто-кучевые, Ns - слоисто-дождевые, Cu - кучевые, Cb - кучево-дождевые. Подробнее классификацию облаков см. в Атласе облаков (PDF).
T - Температура воздуха - температура, измеренная на высоте 2 м над землей.
Td - Температура точки росы - температура, при понижении до которой содержащийся в воздухе водяной пар достигнет насыщения.
f - Относительная влажность воздуха - влажноcть воздуха, измеренная на высоте 2 м над землей.
Te - Эффективная температура - температура, которую ощущает одетый по сезону человек в тени. Характеристика душности погоды. При расчете учитывается влияние влажности воздуха и скорости ветра на теплоощущения человека.
Tes - Эффективная температура на солнце - температура, которую ощущает человек, с поправкой на солнечный нагрев. Характеристика знойности погоды. Зависит от высоты солнца над горизонтом, облачности и скорости ветра. Ночью, в пасмурную погоду, а также при ветре 12 м/с и более поправка равна нулю.
P - Атмосферное давление - приведенное к уровню моря атмосферное давление.
Po - Атмосферное давление - измеренное на уровне метеостанции атмосферное давление.
Tmin - Минимальная температура - минимум температуры воздуха на высоте 2 м над землей.
Tmax - Максимальная температура - максимум температуры воздуха на высоте 2 м над землей.
R - Количество осадков - Количество выпавших осадков за период времени, мм. При наведении курсора мыши на число - период времени, за который выпало указанное количество осадков.
R24 - Количество осадков - Количество выпавших осадков за 24 часа, мм.
S - Снежный покров - Высота снежного покрова, см. При наведении курсора мыши на число - состояние снежного покрова и степень покрытия местности в баллах.